EW5586 Weather Reports


Display with metric or nautical units.
time (UTC)temp
F
wind
direction
speed
MPH
gust
MPH
rain 1hr
in
rain 24hr
in
rain mn
in
humidity
%
barometer
mb
20260508055936 40 315 0.0 1.0 0.00 0.00 0.00 70 1009.0
20260508055436 40 315 0.0 0.0 0.00 0.00 0.00 70 1009.0
20260508054936 40 315 0.0 0.0 0.00 0.00 0.00 70 1009.0
20260508053437 40 315 0.0 3.0 0.00 0.00 0.00 71 1008.9
20260508052936 40 321 0.0 3.0 0.00 0.00 0.00 71 1008.9
20260508052437 40 330 0.0 1.0 0.00 0.00 0.00 72 1009.0
20260508051936 40 330 0.0 1.0 0.00 0.00 0.00 72 1009.0
20260508051436 40 330 0.0 0.0 0.00 0.00 0.00 73 1009.0
20260508050936 40 330 0.0 1.0 0.00 0.00 0.00 73 1009.0
20260508050436 40 330 0.0 1.0 0.00 0.00 0.00 73 1009.0
20260508045934 40 330 0.0 1.0 0.00 0.00 0.00 73 1009.1
20260508045427 40 330 0.0 1.0 0.00 0.00 0.00 74 1009.2
20260508044924 40 330 0.0 2.0 0.00 0.00 0.00 74 1009.1
20260508043920 40 257 0.0 2.0 0.00 0.00 0.00 75 1009.2
20260508043420 40 300 0.0 1.0 0.00 0.00 0.00 76 1009.1
20260508042920 41 300 0.0 1.0 0.00 0.00 0.00 76 1009.1
20260508042420 41 300 0.0 1.0 0.00 0.00 0.00 76 1009.1
20260508041918 41 300 0.0 0.0 0.00 0.00 0.00 76 1009.1
20260508041415 41 298 0.0 1.0 0.00 0.00 0.00 76 1009.1
20260508040914 41 294 0.0 1.0 0.00 0.00 0.00 76 1009.1
20260508035412 42 262 0.0 1.0 0.00 0.00 0.00 76 1008.9
20260508034911 42 262 0.0 0.0 0.00 0.00 0.00 76 1008.9
20260508034411 42 238 0.0 0.0 0.00 0.00 0.00 76 1009.0
20260508033910 42 281 0.0 0.0 0.00 0.00 0.00 76 1009.0
20260508033408 42 292 0.0 2.0 0.00 0.00 0.00 75 1009.0
20260508032901 42 286 0.0 3.0 0.00 0.00 0.00 75 1008.9
20260508032355 43 300 0.0 3.0 0.00 0.00 0.00 75 1008.9
20260508031343 43 248 0.0 2.0 0.00 0.00 0.00 74 1008.9
20260508030837 43 240 0.0 3.0 0.00 0.00 0.00 74 1008.8
20260508030332 43 240 0.0 3.0 0.00 0.00 0.00 74 1008.8
20260508025320 44 196 0.0 4.0 0.00 0.00 0.00 73 1008.7
20260508024813 44 311 1.0 4.0 0.00 0.00 0.00 73 1008.8
20260508024307 44 247 0.0 3.0 0.00 0.00 0.00 73 1008.8
20260508023801 44 229 0.0 2.0 0.00 0.00 0.00 73 1008.8
20260508023258 44 231 0.0 6.0 0.00 0.00 0.00 72 1008.8
20260508022757 45 232 1.0 6.0 0.00 0.00 0.00 72 1008.8
20260508022257 45 239 1.0 4.0 0.00 0.00 0.00 72 1008.8
20260508021254 45 205 2.0 7.0 0.00 0.00 0.00 71 1008.8
20260508020254 45 228 2.0 9.0 0.00 0.00 0.00 71 1008.8
20260508015752 46 225 3.0 9.0 0.00 0.00 0.00 71 1008.8
20260508015249 46 216 3.0 7.0 0.00 0.00 0.00 71 1008.7
20260508014750 46 224 4.0 7.0 0.00 0.00 0.00 70 1008.7
20260508014251 46 215 4.0 8.0 0.00 0.00 0.00 70 1008.6
20260508013749 46 214 5.0 8.0 0.00 0.00 0.00 70 1008.6
20260508013250 46 234 3.0 7.0 0.00 0.00 0.00 69 1008.6
20260508012748 47 232 4.0 10.0 0.00 0.00 0.00 69 1008.5
20260508011748 47 235 5.0 8.0 0.00 0.00 0.00 68 1008.5
20260508011245 47 0 5.0 8.0 0.00 0.00 0.00 68 1008.5
20260508010745 47 229 5.0 9.0 0.00 0.00 0.00 68 1008.5
20260508010245 47 227 5.0 9.0 0.00 0.00 0.00 67 1008.5
20260508005733 47 225 6.0 9.0 0.00 0.00 0.00 67 1008.5
20260508005228 47 188 7.0 16.0 0.00 0.00 0.00 66 1008.5
20260508004721 47 0 8.0 16.0 0.00 0.00 0.00 66 1008.4
20260508004215 47 0 7.0 13.0 0.00 0.00 0.00 66 1008.4
20260508003709 48 217 7.0 15.0 0.00 0.00 0.00 64 1008.3
20260508003204 48 221 7.0 15.0 0.00 0.00 0.00 65 1008.3
20260508002658 48 209 7.0 15.0 0.00 0.00 0.00 63 1008.3
20260508001645 48 218 9.0 18.0 0.00 0.00 0.00 63 1008.2
20260508000634 48 0 8.0 13.0 0.00 0.00 0.00 65 1008.2
20260508000128 48 220 8.0 15.0 0.00 0.00 0.00 68 1008.1
20260507235620 48 197 7.0 15.0 0.00 0.00 0.00 69 1008.1
20260507235115 49 231 6.0 14.0 0.00 0.00 0.00 66 1008.0
20260507234612 49 225 7.0 14.0 0.00 0.00 0.00 60 1007.9
20260507234103 49 216 9.0 18.0 0.00 0.00 0.00 60 1008.0
20260507233051 49 227 9.0 18.0 0.00 0.00 0.00 60 1008.0
20260507232545 49 189 6.0 12.0 0.00 0.00 0.00 60 1008.0
20260507232039 49 218 6.0 11.0 0.00 0.00 0.00 60 1008.0
20260507231533 49 204 6.0 14.0 0.00 0.00 0.00 60 1008.0
20260507231027 49 258 7.0 12.0 0.00 0.00 0.00 61 1008.0
20260507230522 49 218 8.0 12.0 0.00 0.00 0.00 63 1008.0
20260507230015 48 225 8.0 12.0 0.00 0.00 0.00 71 1008.1
20260507225515 48 203 8.0 11.0 0.00 0.00 0.00 75 1008.2
20260507225003 48 0 8.0 11.0 0.00 0.00 0.00 75 1008.2
20260507224459 48 175 8.0 14.0 0.00 0.00 0.00 75 1008.2
20260507223951 48 195 9.0 14.0 0.00 0.00 0.00 75 1008.2
20260507221927 48 183 12.0 16.0 0.00 0.00 0.00 71 1008.3
20260507221421 48 211 12.0 20.0 0.00 0.00 0.00 70 1008.4
20260507220915 48 219 12.0 19.0 0.00 0.00 0.00 71 1008.4
20260507220409 48 217 12.0 16.0 0.00 0.00 0.00 71 1008.4
20260507215903 49 198 12.0 16.0 0.00 0.00 0.00 71 1008.5
20260507214351 49 219 13.0 19.0 0.00 0.00 0.00 70 1008.5
20260507213852 49 221 13.0 21.0 0.00 0.00 0.00 69 1008.5
20260507213352 49 234 13.0 21.0 0.00 0.00 0.00 67 1008.5
20260507212851 49 223 13.0 20.0 0.00 0.00 0.00 67 1008.5
20260507212353 49 205 14.0 20.0 0.00 0.00 0.00 68 1008.6
20260507211351 49 187 12.0 20.0 0.00 0.00 0.00 68 1008.4
20260507210851 49 208 12.0 19.0 0.00 0.00 0.00 66 1008.4
20260507210350 49 213 12.0 19.0 0.00 0.00 0.00 65 1008.5
20260507205849 49 193 13.0 21.0 0.00 0.00 0.00 67 1008.5
20260507205350 49 191 13.0 21.0 0.00 0.00 0.00 65 1008.4
20260507204350 49 227 15.0 22.0 0.00 0.00 0.00 61 1008.4
20260507203849 49 235 15.0 23.0 0.00 0.00 0.00 59 1008.4
20260507203349 49 0 14.0 23.0 0.00 0.00 0.00 61 1008.4
20260507202843 49 187 15.0 21.0 0.00 0.00 0.00 67 1008.5
20260507202339 49 212 15.0 21.0 0.00 0.00 0.00 63 1008.5
20260507201840 49 212 14.0 21.0 0.00 0.00 0.00 68 1008.5
20260507200840 49 216 14.0 20.0 0.00 0.00 0.00 66 1008.5
20260507200339 49 184 13.0 20.0 0.00 0.00 0.00 66 1008.5
20260507195839 49 213 13.0 20.0 0.00 0.00 0.00 67 1008.6
20260507195339 49 202 14.0 21.0 0.00 0.00 0.00 67 1008.6
20260507194840 49 208 14.0 21.0 0.00 0.00 0.00 64 1008.7
20260507194339 49 186 13.0 22.0 0.00 0.00 0.00 61 1008.7
20260507193839 49 194 14.0 22.0 0.00 0.00 0.00 64 1008.8
20260507193339 50 0 12.0 16.0 0.00 0.00 0.00 60 1008.8
20260507192840 51 198 13.0 19.0 0.00 0.00 0.00 51 1008.7
20260507192335 51 207 10.0 19.0 0.00 0.00 0.00 50 1008.8
20260507191835 51 0 8.0 15.0 0.00 0.00 0.00 51 1008.7
20260507191335 50 213 12.0 18.0 0.00 0.00 0.00 55 1008.7
20260507190335 50 196 11.0 20.0 0.00 0.00 0.00 58 1009.0
20260507185835 50 0 11.0 19.0 0.00 0.00 0.00 52 1008.9
20260507185335 50 185 10.0 18.0 0.00 0.00 0.00 58 1008.9
20260507184835 50 227 8.0 14.0 0.00 0.00 0.00 57 1008.9
20260507184335 50 199 11.0 19.0 0.00 0.00 0.00 54 1008.9
20260507183835 50 197 12.0 19.0 0.00 0.00 0.00 61 1008.9
20260507183335 51 0 9.0 17.0 0.00 0.00 0.00 59 1009.0
20260507182835 51 205 6.0 16.0 0.00 0.00 0.00 52 1009.1
20260507182335 52 196 6.0 14.0 0.00 0.00 0.00 48 1009.1
20260507181836 51 0 7.0 17.0 0.00 0.00 0.00 52 1009.0
20260507181335 53 220 6.0 17.0 0.00 0.00 0.00 48 1009.2
20260507180836 53 221 5.0 11.0 0.00 0.00 0.00 43 1009.2
20260507180336 53 229 3.0 12.0 0.00 0.00 0.00 41 1009.1
20260507175835 54 179 2.0 13.0 0.00 0.00 0.00 42 1009.1
20260507175336 54 273 2.0 13.0 0.00 0.00 0.00 45 1009.0
20260507174334 52 304 6.0 17.0 0.00 0.00 0.00 41 1009.2
20260507173835 53 234 3.0 15.0 0.00 0.00 0.00 39 1009.1
20260507173335 53 180 2.0 8.0 0.00 0.00 0.00 44 1009.1
20260507172835 53 251 4.0 10.0 0.00 0.00 0.00 48 1009.2
20260507172336 53 302 4.0 13.0 0.00 0.00 0.00 44 1009.2
20260507171835 53 223 3.0 13.0 0.00 0.00 0.00 44 1009.4
20260507171333 53 205 3.0 12.0 0.00 0.00 0.00 45 1009.3
20260507170334 54 242 2.0 10.0 0.00 0.00 0.00 43 1009.4
20260507165329 53 0 3.0 17.0 0.00 0.00 0.00 46 1009.4
20260507164830 53 224 3.0 13.0 0.00 0.00 0.00 43 1009.7
20260507162831 53 313 2.0 10.0 0.00 0.00 0.00 49 1009.5
20260507161829 52 211 4.0 18.0 0.00 0.00 0.00 47 1009.7
20260507160825 52 215 4.0 15.0 0.00 0.00 0.00 49 1009.9
20260507160328 52 113 3.0 10.0 0.00 0.00 0.00 45 1009.9
20260507155825 52 283 3.0 10.0 0.00 0.00 0.00 45 1010.0
20260507155325 52 331 3.0 17.0 0.00 0.00 0.00 48 1009.9
20260507154326 52 265 3.0 10.0 0.00 0.00 0.00 47 1010.0
20260507153326 52 111 3.0 11.0 0.00 0.00 0.00 50 1010.1
20260507152825 51 211 3.0 12.0 0.00 0.00 0.00 50 1010.2
20260507151321 50 190 5.0 16.0 0.00 0.00 0.00 52 1010.2
20260507150821 50 0 6.0 16.0 0.00 0.00 0.00 50 1010.3
20260507150322 51 223 4.0 13.0 0.00 0.00 0.00 50 1010.5
20260507145821 51 216 3.0 16.0 0.00 0.00 0.00 50 1010.5
20260507145321 51 260 3.0 16.0 0.00 0.00 0.00 53 1010.4
20260507144820 51 307 3.0 9.0 0.00 0.00 0.00 54 1010.5
20260507144321 51 211 2.0 9.0 0.00 0.00 0.00 53 1010.4
20260507143817 50 234 2.0 10.0 0.00 0.00 0.00 54 1010.5
20260507143317 50 287 2.0 10.0 0.00 0.00 0.00 55 1010.5
20260507142817 49 223 2.0 8.0 0.00 0.00 0.00 57 1010.5
20260507141815 49 301 3.0 12.0 0.00 0.00 0.00 57 1010.5
20260507141313 49 9 4.0 12.0 0.00 0.00 0.00 58 1010.5
20260507140813 49 242 4.0 12.0 0.00 0.00 0.00 56 1010.5
20260507140311 49 229 2.0 11.0 0.00 0.00 0.00 58 1010.6
20260507135811 49 261 3.0 12.0 0.00 0.00 0.00 57 1010.5
20260507135309 49 243 2.0 12.0 0.00 0.00 0.00 57 1010.6
20260507134807 49 229 2.0 12.0 0.00 0.00 0.00 61 1010.5
20260507133803 48 228 2.0 9.0 0.00 0.00 0.00 58 1010.6
20260507133302 48 331 2.0 9.0 0.00 0.00 0.00 61 1010.6
20260507132802 47 350 2.0 9.0 0.00 0.00 0.00 60 1010.5
20260507132301 47 302 2.0 7.0 0.00 0.00 0.00 57 1010.6
20260507131800 46 240 3.0 12.0 0.00 0.00 0.00 59 1010.7
20260507131259 46 284 3.0 12.0 0.00 0.00 0.00 59 1010.7
20260507130759 46 234 2.0 10.0 0.00 0.00 0.00 61 1010.8
20260507130258 45 247 3.0 14.0 0.00 0.00 0.00 61 1010.7
20260507125759 45 355 3.0 14.0 0.00 0.00 0.00 59 1010.6
20260507125258 45 285 3.0 13.0 0.00 0.00 0.00 60 1010.7
20260507124759 44 160 3.0 11.0 0.00 0.00 0.00 62 1010.7
20260507124259 44 211 3.0 14.0 0.00 0.00 0.00 62 1010.6
20260507123759 44 216 3.0 14.0 0.00 0.00 0.00 62 1010.6
20260507123259 44 238 2.0 10.0 0.00 0.00 0.00 64 1010.7
20260507122758 43 243 2.0 8.0 0.00 0.00 0.00 65 1010.7
20260507122259 43 243 2.0 10.0 0.00 0.00 0.00 66 1010.7
20260507121258 42 202 1.0 5.0 0.00 0.00 0.00 67 1010.7
20260507120753 42 341 1.0 9.0 0.00 0.00 0.00 68 1010.7
20260507120246 42 236 2.0 9.0 0.00 0.00 0.00 69 1010.7
20260507115742 42 355 2.0 9.0 0.00 0.00 0.00 70 1010.7
20260507115236 42 291 2.0 9.0 0.00 0.00 0.00 70 1010.7
20260507114222 41 26 1.0 7.0 0.00 0.00 0.00 71 1010.6
20260507113716 40 239 1.0 4.0 0.00 0.00 0.00 72 1010.6
20260507113211 40 206 2.0 10.0 0.00 0.00 0.00 73 1010.6
20260507112705 40 218 3.0 10.0 0.00 0.00 0.00 73 1010.7
20260507112159 40 233 2.0 8.0 0.00 0.00 0.00 74 1010.6
20260507110147 38 216 3.0 11.0 0.00 0.00 0.00 76 1010.6
20260507104646 38 221 2.0 8.0 0.00 0.00 0.00 78 1010.4
20260507104147 38 210 3.0 9.0 0.00 0.00 0.00 78 1010.4
20260507103646 37 237 4.0 9.0 0.00 0.00 0.00 78 1010.2
20260507103148 37 0 3.0 8.0 0.00 0.00 0.00 79 1010.2
20260507101622 0 0.0 0.0 0.00 0.00 0.00 1010.0
20260507101036 0 0.0 0.0 0.00 0.00 0.00 1010.0
20260507100527 0 0.0 0.0 0.00 0.00 0.00 1010.0
20260507095942 0 0.0 0.0 0.00 0.00 0.00 1010.0
20260507095442 0 0.0 0.0 0.00 0.00 0.00 1009.9
20260507094932 0 0.0 0.0 0.00 0.00 0.00 1010.0
20260507094346 0 0.0 0.0 0.00 0.00 0.00 1010.0
20260507093837 0 0.0 0.0 0.00 0.00 0.00 1009.9
20260507093332 0 0.0 0.0 0.00 0.00 0.00 1009.9
20260507092748 0 0.0 0.0 0.00 0.00 0.00 1010.0
20260507091744 0 0.0 0.0 0.00 0.00 0.00 1009.8
20260507091243 0 0.0 0.0 0.00 0.00 0.00 1009.9
20260507090646 0 0.0 0.0 0.00 0.00 0.00 1009.8
20260507085638 0 0.0 0.0 0.00 0.00 0.00 1009.8
20260507085044 0 0.0 0.0 0.00 0.00 0.00 1009.8
20260507084038 0 0.0 0.0 0.00 0.00 0.00 1009.5
20260507083446 0 0.0 0.0 0.00 0.00 0.00 1009.5
20260507082947 0 0.0 0.0 0.00 0.00 0.00 1009.4
20260507082438 0 0.0 0.0 0.00 0.00 0.00 1009.4
20260507081845 0 0.0 0.0 0.00 0.00 0.00 1009.7
20260507081248 0 0.0 0.0 0.00 0.00 0.00 1009.7
20260507080746 0 0.0 0.0 0.00 0.00 0.00 1009.8
20260507080244 0 0.0 0.0 0.00 0.00 0.00 1009.8
20260507075739 0 0.0 0.0 0.00 0.00 0.00 1009.8
20260507075152 0 0.0 0.0 0.00 0.00 0.00 1009.7
20260507074646 0 0.0 0.0 0.00 0.00 0.00 1009.7
20260507074140 0 0.0 0.0 0.00 0.00 0.00 1009.4
20260507073545 0 0.0 0.0 0.00 0.00 0.00 1009.4
20260507072946 0 0.0 0.0 0.00 0.00 0.00 1009.3
20260507072352 0 0.0 0.0 0.00 0.00 0.00 1009.1
20260507071846 0 0.0 0.0 0.00 0.00 0.00 1009.0
20260507071340 0 0.0 0.0 0.00 0.00 0.00 1008.9
20260507070838 0 0.0 0.0 0.00 0.00 0.00 1008.9
20260507070242 0 0.0 0.0 0.00 0.00 0.00 1009.0
20260507065741 0 0.0 0.0 0.00 0.00 0.00 1009.1
20260507065238 0 0.0 0.0 0.00 0.00 0.00 1009.1
20260507064644 0 0.0 0.0 0.00 0.00 0.00 1009.0
20260507064140 0 0.0 0.0 0.00 0.00 0.00 1009.0
20260507063544 0 0.0 0.0 0.00 0.00 0.00 1009.1
20260507062542 0 0.0 0.0 0.00 0.00 0.00 1009.0
20260507061449 0 0.0 0.0 0.00 0.01 0.00 1008.9
20260507060949 0 0.0 0.0 0.00 0.01 0.00 1009.0